Location: Kellogg
(38.0159°N, 90.0546°W)
Time: 06:54:11
(UTC+00:00)

Courier 1B Rocket - Pass Details

Date: 13 September 2024
Orbit: 920 x 1201 km, 28.3° (Epoch: 12 October)

Event Time Altitude Azimuth Distance (km) Brightness Sun altitude
Rises 02:15:33 0° 262° (W) 3,934 9.0 -24.2°
Reaches altitude 10° 02:18:34 10° 253° (WSW) 3,014 8.1 -24.7°
Maximum altitude 02:25:06 33° 192° (SSW) 1,852 6.3 -25.9°
Enters shadow 02:26:18 32° 175° (S) 1,911 6.2 -26.1°
